Regional Weather Roundup
Issued by NWS

Home | Current Version | Previous Version | Text Only | Print | Product List | Glossary On
Versions: 1 2 3 4 5 6 7 8 9 10 11 12 13 14 15 16 17 18 19 20 21 22 23 24 25 26 27
000
ASUS45 KREV 171910
RWRNV
NEVADA REGIONAL WEATHER ROUNDUP
NATIONAL WEATHER SERVICE RENO NV
1200 PM PDT THU APR 17 2014

NOTE: "FAIR" INDICATES FEW OR NO CLOUDS BELOW 12,000 FEET WITH NO
SIGNIFICANT WEATHER AND/OR OBSTRUCTIONS TO VISIBILITY.

NVZ001-003-004-172000-
WESTERN NEVADA

CITY           SKY/WX    TMP DP  RH WIND       PRES   REMARKS
RENO           MOSUNNY   72  28  19 S7        29.88F
CARSON CITY    FAIR      68  28  22 W5        29.90F
MINDEN         SUNNY     70  32  24 CALM      29.91F
FALLON         MOSUNNY   72  23  16 VRB7      29.87F
LOVELOCK       SUNNY     69  25  19 CALM      29.88F
HAWTHORNE      SUNNY     72  25  17 NW9       29.87F
$$

NVZ002-CAZ072-073-172000-
NORTHERN AND CENTRAL SIERRA

CITY           SKY/WX    TMP DP  RH WIND       PRES   REMARKS
S. LAKE TAHOE  SUNNY     65  28  24 VRB7      29.97F
TRUCKEE        MOSUNNY   64  34  32 SW17G24   29.98R
SQUAW VLY 8000   N/A     48  30  49 VRB16       N/A
BLUE CANYON    MOSUNNY   62  37  39 S15G21    30.00R
MAMMOTH LAKES  FAIR      64  21  19 E9        30.03F
BRIDGEPORT     FAIR      66  29  24 W17G29    29.97S
$$

NVZ030-031-036-172000-
NORTHERN NEVADA

CITY           SKY/WX    TMP DP  RH WIND       PRES   REMARKS
ELKO           SUNNY     64  28  25 VRB5      29.94F
WINNEMUCCA     SUNNY     71  28  20 S13G20    29.88F
WENDOVER       SUNNY     59  23  25 SE7       30.01F
$$

NVZ035-037-172000-
CENTRAL NEVADA

CITY           SKY/WX    TMP DP  RH WIND       PRES   REMARKS
ELY            SUNNY     64  25  22 S6        30.02F
EUREKA           N/A     68  25  19 S14G23    29.97F
$$

NVZ013-014-172000-
SOUTH CENTRAL NEVADA

CITY           SKY/WX    TMP DP  RH WIND       PRES   REMARKS
TONOPAH        SUNNY     71  21  15 S17G25    29.98F
$$

NVZ017-020-022-172000-
SOUTHERN NEVADA

CITY           SKY/WX    TMP DP  RH WIND       PRES   REMARKS
LAS VEGAS      MOSUNNY   81  24  12 VRB5      29.86F
N. LAS VEGAS   SUNNY     79  22  12 SE5       29.90F
NELLIS AFB     SUNNY     80  26  13 S6        29.89F
HENDERSON      SUNNY     81  26  13 NE8       29.92F
MERCURY        SUNNY     80  21  11 SE12G17   29.90F
$$



USA.gov is the U.S. government's official web portal to all federal, state and local government web resources and services.